Date String (YYYY-MM-DD hh:mm:ss) UTC,Instrument flags,Ambient pressure (hPa),Sample flow (lpm),Bypass flow (lpm),Sample temperature (°C),Ambient temperature (°C),ASC tube jacket temperature (°C),LED temperature (°C),Box temperature (°C),Sample RH (%),Span deviation,Mass concentration (μg/m³),Mass concentration (μg/m³),Mass concentration (μg/m³)
DateTimeUTC,F1_M11,P_M11,Q1_M11,Q2_M11,T1_M11,T2_M11,T3_M11,T4_M11,T5_M11,U1_M11,ZSPAN_M11,X0_M11,X2_M11,X1_M11
2023-01-11 07:00:00,,0817.1,5.01,0.00,21.8,20.2,00.0,30.8,23.4,17.1,0000.0,0010.78,0007.25,0006.96
2023-01-11 07:01:00,,0817.0,5.00,0.00,21.8,20.2,00.0,30.7,23.4,17.2,0000.0,0010.66,0007.15,0006.86
2023-01-11 07:02:00,,0816.8,5.01,0.00,21.8,20.8,00.0,30.7,23.6,17.3,0000.0,0010.50,0007.03,0006.76
2023-01-11 07:03:00,,0816.8,5.00,0.00,21.9,21.9,00.0,30.7,23.9,17.1,0000.0,0009.89,0006.91,0006.66
2023-01-11 07:04:00,,0817.0,5.00,0.00,22.1,22.7,00.0,30.7,24.1,16.9,0000.0,0009.33,0006.78,0006.55
2023-01-11 07:05:00,,0817.1,4.98,0.00,22.1,22.4,00.0,30.8,24.1,16.7,0000.0,0009.82,0006.64,0006.42
2023-01-11 07:06:00,,0816.9,5.00,0.00,22.1,21.9,00.0,30.8,24.1,16.8,0000.0,0009.75,0006.53,0006.31
2023-01-11 07:07:00,,0816.8,5.01,0.00,22.1,21.5,00.0,30.9,24.0,16.8,0000.0,0009.64,0006.40,0006.19
2023-01-11 07:08:00,,0816.9,5.00,0.00,22.1,21.3,00.0,30.9,24.0,16.8,0000.0,0009.41,0006.25,0006.06
2023-01-11 07:09:00,,0817.0,4.99,0.00,22.1,21.1,00.0,30.9,23.9,16.7,0000.0,0009.25,0006.12,0005.96
2023-01-11 07:10:00,,0817.4,5.02,0.00,22.1,20.9,00.0,30.9,23.9,16.8,0000.0,0009.25,0006.02,0005.87
2023-01-11 07:11:00,,0817.2,5.00,0.00,22.1,20.8,00.0,30.9,23.9,16.8,0000.0,0009.53,0005.95,0005.79
2023-01-11 07:12:00,,0817.2,4.99,0.00,22.1,20.7,00.0,30.9,23.9,16.7,0000.0,0009.49,0005.88,0005.70
2023-01-11 07:13:00,,0817.1,4.98,0.00,22.1,20.6,00.0,30.9,23.8,16.6,0000.0,0009.41,0005.80,0005.61
2023-01-11 07:14:00,,0817.1,5.00,0.00,22.1,20.6,00.0,30.9,23.8,16.5,0000.0,0010.04,0005.70,0005.51
2023-01-11 07:15:00,,0817.3,5.00,0.00,22.0,20.5,00.0,30.9,23.7,16.4,0000.0,0010.27,0005.60,0005.41
2023-01-11 07:16:00,,0817.3,5.01,0.00,22.0,20.5,00.0,30.9,23.7,16.5,0000.0,0009.69,0005.54,0005.34
2023-01-11 07:17:00,,0817.2,5.00,0.00,22.0,20.5,00.0,30.9,23.7,16.6,0000.0,0009.54,0005.48,0005.28
2023-01-11 07:18:00,,0817.3,5.00,0.00,22.0,20.4,00.0,30.9,23.7,16.6,0000.0,0009.42,0005.41,0005.21
2023-01-11 07:19:00,,0817.2,5.01,0.00,22.0,20.4,00.0,30.9,23.7,16.6,0000.0,0009.41,0005.37,0005.16
2023-01-11 07:20:00,,0817.0,4.98,0.00,22.0,20.4,00.0,30.9,23.7,16.5,0000.0,0009.35,0005.31,0005.10
2023-01-11 07:21:00,,0817.1,4.99,0.00,22.0,20.4,00.0,30.9,23.7,16.6,0000.0,0009.28,0005.26,0005.04
2023-01-11 07:22:00,,0817.1,5.00,0.00,22.0,20.4,00.0,30.9,23.6,16.5,0000.0,0008.74,0005.18,0004.99
2023-01-11 07:23:00,,0817.4,5.01,0.00,21.9,20.4,00.0,30.9,23.6,16.5,0000.0,0008.62,0005.10,0004.93
2023-01-11 07:24:00,,0817.2,4.99,0.00,21.9,20.3,00.0,30.9,23.6,16.5,0000.0,0008.53,0005.04,0004.89
2023-01-11 07:25:00,,0817.2,5.01,0.00,21.9,20.3,00.0,30.9,23.6,16.5,0000.0,0007.88,0005.02,0004.87
2023-01-11 07:26:00,,0817.0,5.01,0.00,21.9,20.3,00.0,30.8,23.6,16.6,0000.0,0007.49,0005.00,0004.85
2023-01-11 07:27:00,,0816.8,5.00,0.00,21.9,20.3,00.0,30.8,23.6,16.4,0000.0,0007.30,0004.97,0004.84
2023-01-11 07:28:00,,0816.8,5.00,0.00,21.9,20.3,00.0,30.8,23.5,16.5,0000.0,0007.81,0004.92,0004.79
2023-01-11 07:29:00,,0816.8,5.01,0.00,21.9,20.3,00.0,30.8,23.5,16.5,0000.0,0007.83,0004.90,0004.77
2023-01-11 07:30:00,,0816.8,5.01,0.00,21.8,20.3,00.0,30.8,23.5,16.6,0000.0,0007.93,0004.88,0004.75
2023-01-11 07:31:00,,0817.0,5.00,0.00,21.8,20.3,00.0,30.8,23.5,16.6,0000.0,0007.95,0004.88,0004.73
2023-01-11 07:32:00,,0817.2,5.00,0.00,21.8,20.3,00.0,30.8,23.5,16.6,0000.0,0007.97,0004.86,0004.70
2023-01-11 07:33:00,,0817.0,5.00,0.00,21.8,20.3,00.0,30.8,23.5,16.6,0000.0,0008.05,0004.83,0004.67
2023-01-11 07:34:00,,0816.8,4.99,0.00,21.8,20.3,00.0,30.8,23.5,16.5,0000.0,0008.00,0004.80,0004.65
2023-01-11 07:35:00,,0816.8,5.00,0.00,21.8,20.3,00.0,30.8,23.5,16.6,0000.0,0008.01,0004.78,0004.63
2023-01-11 07:36:00,,0816.8,5.02,0.00,21.8,20.3,00.0,30.7,23.5,16.6,0000.0,0007.96,0004.74,0004.60
2023-01-11 07:37:00,,0816.9,4.99,0.00,21.8,20.3,00.0,30.7,23.5,16.5,0000.0,0007.98,0004.73,0004.58
2023-01-11 07:38:00,,0816.9,5.00,0.00,21.8,20.3,00.0,30.7,23.5,16.7,0000.0,0007.95,0004.73,0004.56
2023-01-11 07:39:00,,0816.9,5.00,0.00,21.8,20.3,00.0,30.7,23.5,16.7,0000.0,0007.44,0004.71,0004.54
2023-01-11 07:40:00,,0816.8,4.98,0.00,21.8,20.3,00.0,30.7,23.5,16.7,0000.0,0007.37,0004.69,0004.52
2023-01-11 07:41:00,,0816.9,5.00,0.00,21.8,20.3,00.0,30.7,23.5,16.7,0000.0,0007.09,0004.65,0004.49
2023-01-11 07:42:00,,0816.8,5.00,0.00,21.8,20.3,00.0,30.7,23.4,16.8,0000.0,0006.97,0004.61,0004.46
2023-01-11 07:43:00,,0816.8,5.01,0.00,21.8,20.3,00.0,30.7,23.4,16.8,0000.0,0006.87,0004.58,0004.44
2023-01-11 07:44:00,,0817.0,4.99,0.00,21.7,20.2,00.0,30.7,23.4,16.9,0000.0,0006.63,0004.57,0004.42
2023-01-11 07:45:00,,0817.0,5.00,0.00,21.8,20.7,00.0,30.7,23.6,16.8,0000.0,0006.66,0004.56,0004.40
2023-01-11 07:46:00,,0816.7,5.01,0.00,21.9,21.7,00.0,30.6,23.8,16.6,0000.0,0006.77,0004.55,0004.38
2023-01-11 07:47:00,,0816.6,5.01,0.00,22.0,22.7,00.0,30.7,24.1,16.4,0000.0,0006.70,0004.52,0004.35
2023-01-11 07:48:00,,0816.7,4.98,0.00,22.1,22.6,00.0,30.7,24.2,16.4,0000.0,0006.60,0004.48,0004.32
2023-01-11 07:49:00,,0816.6,5.00,0.00,22.2,22.2,00.0,30.8,24.1,16.4,0000.0,0006.45,0004.44,0004.31
2023-01-11 07:50:00,,0816.6,5.00,0.00,22.2,21.8,00.0,30.8,24.1,16.4,0000.0,0006.32,0004.41,0004.28
2023-01-11 07:51:00,,0816.6,5.00,0.00,22.2,21.5,00.0,30.9,24.0,16.4,0000.0,0006.14,0004.36,0004.25
2023-01-11 07:52:00,,0816.6,5.00,0.00,22.2,21.3,00.0,30.9,24.0,16.4,0000.0,0006.03,0004.32,0004.21
2023-01-11 07:53:00,,0816.7,5.00,0.00,22.2,21.1,00.0,30.9,24.0,16.5,0000.0,0005.92,0004.27,0004.17
2023-01-11 07:54:00,,0816.6,5.01,0.00,22.2,21.0,00.0,30.9,23.9,16.5,0000.0,0005.89,0004.23,0004.13
2023-01-11 07:55:00,,0817.1,5.02,0.00,22.2,20.9,00.0,30.9,23.9,16.4,0000.0,0005.80,0004.18,0004.08
2023-01-11 07:56:00,,0816.9,4.99,0.00,22.1,20.8,00.0,30.9,23.9,16.2,0000.0,0005.79,0004.15,0004.04
2023-01-11 07:57:00,,0817.2,4.99,0.00,22.1,20.8,00.0,30.9,23.9,16.3,0000.0,0005.52,0004.09,0003.98
2023-01-11 07:58:00,,0816.9,4.99,0.00,22.1,20.8,00.0,30.9,23.9,16.4,0000.0,0005.46,0004.04,0003.94
2023-01-11 07:59:00,,0816.9,5.01,0.00,22.1,20.7,00.0,30.9,23.9,16.3,0000.0,0005.36,0004.00,0003.90
